[[[{"header":{"parameterUnit":"kt","parameterCategory":2,"dx":1,"dy":1,"la1":30.253999710083008,"la2":30.299108505249023,"lo1":-89.0895004272461,"lo2":-89.04439544677734,"nx":28,"ny":28,"refTime":"2022-09-27T15:00:00:Z","depth":"0","parameterNumber":2,"parameterNumberName":"U-component_of_CURRENTS"},"data":[-0.1524,-0.1422,-0.1409,-0.1317,-0.1291,-0.1271,-0.1285,-0.1486,-0.1819,-0.2565,-0.3273,-0.3795,-0.4315,-0.4561,-0.4494,-0.4254,-0.3983,-0.3868,-0.3745,-0.3808,-0.3757,-0.3708,-0.379,-0.4199,-0.42,-0.3719,-0.3719,-0.3718,-0.1609,-0.1567,-0.1508,-0.1436,-0.1391,-0.14,-0.14,-0.1464,-0.1611,-0.2019,-0.2245,-0.2991,-0.3253,-0.3455,-0.3746,-0.3681,-0.3428,-0.3583,-0.3359,-0.3325,-0.3228,-0.3303,-0.3614,-0.3614,-0.3614,-0.3614,-0.3614,-0.3614,-0.1758,-0.1698,-0.1636,-0.1565,-0.1524,-0.1487,-0.1466,-0.1519,-0.1571,-0.1778,-0.1819,-0.22,-0.2501,-0.2815,-0.2781,-0.2996,-0.2782,-0.3009,-0.3083,-0.2835,-0.2896,-0.2799,-0.2946,-0.2944,-0.2942,-0.2941,-0.2939,0,-0.1853,-0.1829,-0.1765,-0.1699,-0.1645,-0.1589,-0.155,-0.1536,-0.1565,-0.1629,-0.1725,-0.1814,-0.2012,-0.2285,-0.2441,-0.2469,-0.2433,-0.2455,-0.2512,-0.2893,-0.2729,-0.2756,-0.2544,-0.2616,-0.2612,-0.2609,-0.2607,-0.2605,-0.1962,-0.1911,-0.1841,-0.1797,-0.1764,-0.1702,-0.1663,-0.1662,-0.1645,-0.1686,-0.1678,-0.1743,-0.1834,-0.1945,-0.2094,-0.2203,-0.2141,-0.2353,-0.2378,-0.2495,-0.2604,-0.2394,-0.24,-0.2559,-0.2565,-0.257,-0.2574,0,-0.2009,-0.1988,-0.1911,-0.1861,-0.1843,-0.1789,-0.1747,-0.1712,-0.1721,-0.17,-0.1696,-0.1734,-0.1793,-0.1833,-0.1853,-0.1912,-0.2021,-0.2003,-0.2193,-0.2245,-0.2462,-0.2543,-0.2408,-0.2423,-0.2137,-0.214,-0.2142,0,-0.2074,-0.2021,-0.1983,-0.1945,-0.1874,-0.1874,-0.1811,-0.1799,-0.1785,-0.1765,-0.1786,-0.1784,-0.1792,-0.1812,-0.1842,-0.1923,-0.1846,-0.1984,-0.2013,-0.2154,-0.2179,-0.2269,-0.2357,-0.1838,-0.1838,-0.1838,-0.1838,0,-0.2129,-0.2076,-0.2012,-0.1996,-0.1954,-0.1925,-0.1906,-0.1889,-0.1865,-0.1848,-0.1844,-0.1822,-0.1819,-0.1815,-0.1868,-0.187,-0.1865,-0.1874,-0.2001,-0.2012,-0.2161,-0.2189,-0.2249,-0.1838,-0.1838,-0.1838,-0.1838,0,-0.2174,-0.2137,-0.2072,-0.2021,-0.2014,-0.1988,-0.1949,-0.1928,-0.1912,-0.1913,-0.1896,-0.1911,-0.188,-0.1913,-0.1893,-0.191,-0.1927,-0.194,-0.1941,-0.2069,-0.2134,-0.2299,-0.23,-0.2388,-0.1995,-0.1996,-0.1997,0,-0.2215,-0.2157,-0.2155,-0.2099,-0.2071,-0.2084,-0.2053,-0.2044,-0.2042,-0.2017,-0.2014,-0.1988,-0.2014,-0.2009,-0.1987,-0.2001,-0.1981,-0.2002,-0.2018,-0.2019,-0.214,-0.2101,-0.227,-0.2301,-0.2007,-0.2006,-0.2005,0,-0.2252,-0.2215,-0.2209,-0.2184,-0.2184,-0.2175,-0.2148,-0.2131,-0.2109,-0.2106,-0.207,-0.2043,-0.2059,-0.205,-0.2065,-0.2043,-0.2004,-0.2075,-0.2075,-0.2086,-0.1973,-0.2102,-0.2108,-0.2008,-0.2006,-0.2005,-0.2014,0,-0.2254,-0.2241,-0.2231,-0.2222,-0.2221,-0.221,-0.2219,-0.2211,-0.2216,-0.2217,-0.218,-0.2183,-0.2161,-0.2158,-0.2172,-0.2115,-0.2145,-0.2156,-0.218,-0.213,-0.2145,-0.2138,-0.2233,-0.2234,-0.2235,-0.2236,0,0,-0.2292,-0.2275,-0.2302,-0.2288,-0.2281,-0.2317,-0.2299,-0.2301,-0.2306,-0.2294,-0.231,-0.2274,-0.2276,-0.223,-0.2213,-0.2223,-0.2228,-0.2226,-0.216,-0.2152,-0.2144,-0.2155,-0.2148,-0.2237,-0.2238,-0.2238,-0.2238,0,-0.2294,-0.2313,-0.2305,-0.2308,-0.2321,-0.2331,-0.2332,-0.2348,-0.2347,-0.233,-0.2339,-0.2323,-0.2311,-0.2294,-0.2287,-0.224,-0.226,-0.2242,-0.2195,-0.2169,-0.2159,-0.2151,-0.216,-0.2153,-0.224,-0.224,-0.224,0,-0.2319,-0.2328,-0.2331,-0.2348,-0.2359,-0.2352,-0.2385,-0.2391,-0.2376,-0.2407,-0.2378,-0.2382,-0.2379,-0.2349,-0.2338,-0.2353,-0.2293,-0.2316,-0.2311,-0.2296,-0.227,-0.226,-0.225,-0.2374,-0.2374,-0.2375,0,0,-0.2325,-0.2326,-0.2352,-0.2353,-0.236,-0.2382,-0.2388,-0.2401,-0.2407,-0.241,-0.2409,-0.2404,-0.2389,-0.2384,-0.2374,-0.2353,-0.2355,-0.2331,-0.2325,-0.2319,-0.2302,-0.2275,-0.2264,-0.2376,-0.2376,-0.2376,0,0,-0.2328,-0.235,-0.2364,-0.237,-0.2382,-0.2403,-0.2402,-0.2417,-0.2419,-0.242,-0.2429,-0.2428,-0.2402,-0.2409,-0.2426,-0.2376,-0.2403,-0.24,-0.2368,-0.2361,-0.2355,-0.2334,-0.2442,0,0,0,0,0,-0.2349,-0.2347,-0.236,-0.2364,-0.2392,-0.2399,-0.2402,-0.2419,-0.2431,-0.2428,-0.243,-0.2439,-0.2414,-0.243,-0.2429,-0.24,-0.2393,-0.239,-0.2387,-0.2342,-0.2334,-0.2327,0,0,0,0,0,0,-0.2351,-0.2356,-0.2359,-0.2381,-0.2387,-0.24,-0.2417,-0.2422,-0.2431,-0.2433,-0.2439,-0.244,-0.2444,-0.2431,-0.243,-0.2402,-0.2442,-0.2392,-0.2389,-0.2387,-0.2339,-0.2332,-0.2326,0,0,0,0,0,-0.2352,-0.2357,-0.2397,-0.2381,-0.2386,-0.2409,-0.2418,-0.2421,-0.2429,-0.2436,-0.2438,-0.2441,-0.2444,-0.2444,-0.243,-0.2401,-0.2443,-0.2442,-0.239,-0.2388,-0.2386,-0.2336,0,0,0,0,0,0,-0.2353,-0.236,-0.2398,-0.24,-0.2382,-0.2408,-0.2413,-0.2421,-0.2432,-0.2434,-0.2437,-0.2439,-0.2444,-0.2444,-0.2443,-0.24,-0.2443,-0.2443,-0.2443,-0.2389,-0.2387,-0.2386,0,0,0,0,0,0,-0.2358,-0.2362,-0.2399,-0.2399,-0.2402,-0.2407,-0.2412,-0.2408,-0.2431,-0.2432,-0.2433,-0.2438,-0.2437,-0.2444,-0.2443,-0.2438,-0.2443,-0.2443,-0.2443,-0.2443,-0.2387,-0.2386,0,0,0,0,0,0,-0.236,-0.2363,-0.2399,-0.2401,-0.2403,-0.243,-0.2403,-0.2426,-0.2446,-0.243,-0.2447,-0.2447,-0.2436,-0.2437,-0.2443,-0.2438,-0.2438,-0.2443,-0.2443,-0.2443,-0.2443,0,0,0,0,0,0,0,-0.2362,-0.2335,-0.2384,-0.2402,-0.2404,-0.2422,-0.2422,-0.2423,-0.2446,-0.2447,-0.2447,-0.2447,-0.2445,-0.2445,-0.2444,-0.2438,0,0,-0.2444,-0.2443,0,0,0,0,0,0,0,0,-0.2333,-0.2334,-0.2385,-0.2385,-0.2385,-0.2422,-0.2422,-0.2423,-0.2447,-0.2447,-0.2447,-0.2447,-0.2445,-0.2445,-0.2444,0,0,0,0,0,0,0,0,0,0,0,0,0,0,0,-0.2385,-0.2385,0,-0.2422,-0.2422,-0.2423,-0.2447,-0.2447,-0.2447,-0.2447,-0.2445,-0.2445,-0.2444,0,0,0,0,0,0,0,0,0,0,0,0,0,0,0,0,0,0,0,0,0,0,0,0,0,0,0,0,0,0,0,0,0,0,0,0,0,0,0,0,0,0,0,0,0,0,0,0,0,0,0,0,0,0,0,0,0,0,0,0,0,0,0,0,0,0,0,0,0]}],[{"header":{"parameterUnit":"kt","parameterCategory":2,"dx":1,"dy":1,"la1":30.253999710083008,"la2":30.299108505249023,"lo1":-89.0895004272461,"lo2":-89.04439544677734,"nx":28,"ny":28,"refTime":"2022-09-27T15:00:00:Z","depth":"0","parameterNumber":3,"parameterNumberName":"V-component_of_CURRENTS"},"data":[-0.1722,-0.1702,-0.1748,-0.1756,-0.1779,-0.1878,-0.1942,-0.2209,-0.2462,-0.299,-0.3277,-0.3412,-0.3057,-0.231,-0.1994,-0.1919,-0.1913,-0.1789,-0.181,-0.1785,-0.176,-0.1736,-0.1785,-0.1969,-0.1969,-0.1941,-0.194,-0.194,-0.1824,-0.1845,-0.1833,-0.1813,-0.1827,-0.1823,-0.185,-0.197,-0.2121,-0.2328,-0.2427,-0.2555,-0.2444,-0.2245,-0.2001,-0.1858,-0.1786,-0.1768,-0.1625,-0.1747,-0.1681,-0.1736,-0.1913,-0.1913,-0.1913,-0.1913,-0.1913,-0.1913,-0.1987,-0.1965,-0.194,-0.1905,-0.1882,-0.187,-0.1874,-0.1892,-0.1901,-0.2005,-0.1867,-0.2025,-0.1883,-0.178,-0.1643,-0.1547,-0.1448,-0.1535,-0.1503,-0.1341,-0.1512,-0.1479,-0.1533,-0.1531,-0.1529,-0.1528,-0.1527,0,-0.208,-0.2084,-0.2035,-0.1999,-0.1949,-0.189,-0.1822,-0.1804,-0.1707,-0.1693,-0.1657,-0.1624,-0.1492,-0.1514,-0.1408,-0.1335,-0.1235,-0.1234,-0.1215,-0.1425,-0.1327,-0.146,-0.134,-0.1368,-0.1365,-0.1363,-0.1361,-0.136,-0.2181,-0.2146,-0.2081,-0.2048,-0.2001,-0.1919,-0.1861,-0.1766,-0.1711,-0.1576,-0.1533,-0.1419,-0.1371,-0.1236,-0.1167,-0.1106,-0.1061,-0.1169,-0.1185,-0.1227,-0.1205,-0.1062,-0.1189,-0.1329,-0.1333,-0.1336,-0.1339,0,-0.2232,-0.2192,-0.2111,-0.2025,-0.1997,-0.1935,-0.1821,-0.1756,-0.1663,-0.1554,-0.1511,-0.1362,-0.1274,-0.1163,-0.1042,-0.1011,-0.0986,-0.0953,-0.113,-0.1146,-0.12,-0.1186,-0.1032,-0.1177,-0.099,-0.0991,-0.0992,0,-0.2258,-0.2196,-0.2126,-0.2082,-0.2003,-0.1922,-0.1826,-0.174,-0.1625,-0.154,-0.1422,-0.1344,-0.1194,-0.1112,-0.1057,-0.1004,-0.0952,-0.0978,-0.0972,-0.1094,-0.1112,-0.1097,-0.1086,-0.0872,-0.0872,-0.0873,-0.0873,0,-0.2287,-0.2187,-0.2118,-0.2077,-0.1954,-0.1904,-0.1834,-0.1706,-0.1625,-0.1485,-0.1429,-0.1289,-0.121,-0.1137,-0.1057,-0.1056,-0.0951,-0.0935,-0.0976,-0.0982,-0.1071,-0.1088,-0.1093,-0.0873,-0.0873,-0.0873,-0.0873,0,-0.2271,-0.222,-0.2137,-0.2021,-0.1992,-0.1932,-0.18,-0.1713,-0.157,-0.1501,-0.1394,-0.1312,-0.1195,-0.1193,-0.1065,-0.1089,-0.1057,-0.1016,-0.1013,-0.1056,-0.1064,-0.1181,-0.12,-0.1208,-0.1008,-0.1009,-0.101,0,-0.2299,-0.2219,-0.2158,-0.2065,-0.2008,-0.1921,-0.1838,-0.173,-0.1638,-0.1531,-0.1421,-0.1307,-0.1277,-0.1225,-0.1173,-0.1089,-0.1062,-0.1094,-0.1009,-0.1007,-0.1079,-0.107,-0.1211,-0.1206,-0.1021,-0.102,-0.1019,0,-0.2307,-0.2198,-0.2188,-0.2137,-0.2029,-0.1973,-0.1884,-0.1761,-0.1698,-0.1583,-0.1482,-0.1338,-0.13,-0.1229,-0.116,-0.1115,-0.1084,-0.1104,-0.1101,-0.1108,-0.1007,-0.1078,-0.1078,-0.1055,-0.1053,-0.1052,-0.1028,0,-0.2252,-0.2205,-0.2192,-0.2103,-0.2045,-0.1992,-0.1885,-0.1821,-0.175,-0.1661,-0.1533,-0.1423,-0.1297,-0.1263,-0.121,-0.1126,-0.1133,-0.111,-0.1099,-0.1085,-0.1079,-0.1072,-0.1143,-0.1143,-0.1142,-0.1142,0,0,-0.2268,-0.2213,-0.2158,-0.2115,-0.2057,-0.1983,-0.1929,-0.1853,-0.1715,-0.1659,-0.1645,-0.1431,-0.1352,-0.1216,-0.1199,-0.1164,-0.1149,-0.1148,-0.1096,-0.1091,-0.1087,-0.108,-0.1074,-0.1141,-0.114,-0.114,-0.114,0,-0.2236,-0.2205,-0.2178,-0.2119,-0.2032,-0.1961,-0.1954,-0.1838,-0.1775,-0.1671,-0.159,-0.1508,-0.1361,-0.1269,-0.1206,-0.1165,-0.1127,-0.1143,-0.1143,-0.1094,-0.109,-0.1086,-0.1079,-0.1074,-0.1139,-0.1139,-0.1139,0,-0.2215,-0.2161,-0.214,-0.2055,-0.1994,-0.1931,-0.1882,-0.1823,-0.1753,-0.1666,-0.1557,-0.1484,-0.1372,-0.1273,-0.1229,-0.1223,-0.1116,-0.1134,-0.1136,-0.1127,-0.1074,-0.107,-0.1066,-0.1115,-0.1115,-0.1116,0,0,-0.2194,-0.2162,-0.2063,-0.2041,-0.2012,-0.191,-0.1864,-0.1806,-0.1715,-0.1676,-0.158,-0.1484,-0.139,-0.1336,-0.1248,-0.1168,-0.1144,-0.1134,-0.1135,-0.1136,-0.1128,-0.1076,-0.1072,-0.1116,-0.1116,-0.1116,0,0,-0.2175,-0.2076,-0.2048,-0.2017,-0.1941,-0.182,-0.1793,-0.174,-0.1652,-0.1647,-0.1537,-0.1508,-0.1417,-0.1362,-0.1383,-0.1237,-0.123,-0.1224,-0.1269,-0.1269,-0.127,-0.1281,-0.1318,0,0,0,0,0,-0.2096,-0.2092,-0.2069,-0.2051,-0.1927,-0.184,-0.1817,-0.1728,-0.171,-0.169,-0.1599,-0.1553,-0.1345,-0.1361,-0.1335,-0.1302,-0.1125,-0.1124,-0.1122,-0.1161,-0.1163,-0.1164,0,0,0,0,0,0,-0.2089,-0.2071,-0.2067,-0.1956,-0.1926,-0.184,-0.1788,-0.1763,-0.171,-0.1701,-0.1571,-0.1549,-0.1469,-0.1369,-0.1347,-0.1316,-0.1325,-0.1124,-0.1123,-0.1122,-0.1162,-0.1163,-0.1164,0,0,0,0,0,-0.2082,-0.2068,-0.1905,-0.1953,-0.1927,-0.1804,-0.1789,-0.1767,-0.1724,-0.1595,-0.1572,-0.1662,-0.1472,-0.1447,-0.1355,-0.1328,-0.134,-0.1332,-0.1124,-0.1123,-0.1122,-0.1162,0,0,0,0,0,0,-0.2077,-0.2035,-0.1896,-0.1882,-0.1957,-0.1806,-0.1785,-0.1771,-0.162,-0.1597,-0.1681,-0.1676,-0.1473,-0.1453,-0.1434,-0.1336,-0.1352,-0.1344,-0.1339,-0.1123,-0.1122,-0.1121,0,0,0,0,0,0,-0.2042,-0.2025,-0.1889,-0.19,-0.1886,-0.1808,-0.179,-0.1708,-0.1619,-0.1714,-0.1705,-0.1681,-0.1502,-0.1458,-0.1443,-0.1318,-0.1361,-0.1353,-0.1348,-0.1345,-0.1122,-0.1122,0,0,0,0,0,0,-0.2032,-0.2017,-0.1903,-0.1893,-0.1881,-0.1719,-0.1732,-0.1612,-0.1629,-0.1722,-0.1628,-0.1628,-0.1508,-0.1491,-0.1449,-0.1331,-0.1321,-0.1361,-0.1356,-0.1352,-0.1349,0,0,0,0,0,0,0,-0.2024,-0.2158,-0.1978,-0.1886,-0.1876,-0.1755,-0.1751,-0.1747,-0.1629,-0.1628,-0.1628,-0.1628,-0.1405,-0.1397,-0.1388,-0.1341,0,0,-0.1362,-0.1358,0,0,0,0,0,0,0,0,-0.2161,-0.2159,-0.1978,-0.1975,-0.1972,-0.1755,-0.1751,-0.1748,-0.1629,-0.1628,-0.1628,-0.1628,-0.1403,-0.1396,-0.1389,0,0,0,0,0,0,0,0,0,0,0,0,0,0,0,-0.1977,-0.1975,0,-0.1754,-0.1752,-0.1749,-0.1629,-0.1628,-0.1628,-0.1628,-0.1401,-0.1396,-0.139,0,0,0,0,0,0,0,0,0,0,0,0,0,0,0,0,0,0,0,0,0,0,0,0,0,0,0,0,0,0,0,0,0,0,0,0,0,0,0,0,0,0,0,0,0,0,0,0,0,0,0,0,0,0,0,0,0,0,0,0,0,0,0,0,0,0,0,0,0]}]],[[{"header":{"parameterUnit":"kt","parameterCategory":2,"dx":1,"dy":1,"la1":30.253999710083008,"la2":30.299108505249023,"lo1":-89.0895004272461,"lo2":-89.04439544677734,"nx":28,"ny":28,"refTime":"2022-09-27T15:00:00:Z","depth":"2","parameterNumber":2,"parameterNumberName":"U-component_of_CURRENTS"},"data":[-0.1461,-0.1348,-0.1335,-0.1226,-0.1223,-0.114,-0.1152,-0.1136,-0.1206,-0.1258,-0.1433,-0.1584,-0.1718,-0.1547,-0.1449,-0.1423,-0.1399,-0.1346,-0.1834,-0.1577,-0.1586,-0.1577,-0.155,0,0,0,0,0,-0.1553,-0.1536,-0.1477,-0.1404,-0.133,-0.1369,-0.1369,-0.1316,-0.1331,-0.1466,-0.1561,-0.1554,-0.162,-0.1685,-0.1631,-0.1657,-0.1488,-0.1644,-0.1413,-0.1426,-0.1437,-0.1407,-0.1312,-0.131,-0.1309,-0.1307,0,0,-0.1726,-0.1667,-0.1604,-0.1534,-0.1494,-0.1456,-0.1434,-0.1406,-0.1427,-0.1483,-0.1618,-0.1747,-0.1742,-0.1867,-0.1819,-0.1803,-0.1922,-0.1898,-0.1892,-0.1889,-0.1891,-0.1923,-0.192,-0.1922,-0.1924,-0.1926,-0.1928,0,-0.1821,-0.1797,-0.1734,-0.1667,-0.1613,-0.1558,-0.1519,-0.1504,-0.1533,-0.1576,-0.1672,-0.1744,-0.1824,-0.1848,-0.1957,-0.1954,-0.1906,-0.1922,-0.2088,-0.1656,-0.1676,-0.1701,-0.1711,-0.1627,-0.1628,-0.1629,-0.1629,-0.163,-0.1929,-0.1878,-0.1809,-0.1765,-0.1733,-0.1671,-0.1632,-0.1631,-0.1614,-0.1654,-0.1646,-0.1712,-0.1784,-0.1896,-0.1913,-0.1986,-0.2036,-0.1929,-0.1903,-0.209,-0.2118,-0.2118,-0.2119,-0.1641,-0.1639,-0.1638,-0.1637,0,-0.1976,-0.1955,-0.1878,-0.1829,-0.1811,-0.1757,-0.1715,-0.168,-0.1689,-0.1668,-0.1664,-0.1703,-0.1762,-0.1802,-0.1822,-0.1881,-0.1928,-0.1971,-0.1785,-0.1795,-0.2094,-0.2099,-0.2097,-0.2102,-0.2105,-0.2108,-0.2111,0,-0.2041,-0.1989,-0.1951,-0.1912,-0.1842,-0.1841,-0.1779,-0.1768,-0.1753,-0.1734,-0.1754,-0.1752,-0.176,-0.178,-0.181,-0.1891,-0.1814,-0.1952,-0.1981,-0.1793,-0.1792,-0.1881,-0.1889,-0.1806,-0.1806,-0.1806,-0.1806,0,-0.2097,-0.2043,-0.198,-0.1963,-0.1921,-0.1892,-0.1873,-0.1857,-0.1833,-0.1816,-0.1812,-0.179,-0.1787,-0.1784,-0.1836,-0.1838,-0.1834,-0.1842,-0.1969,-0.198,-0.1808,-0.1809,-0.1806,-0.1806,-0.1806,-0.1806,-0.1806,0,-0.2141,-0.2104,-0.2039,-0.1988,-0.1981,-0.1955,-0.1916,-0.1895,-0.1879,-0.1881,-0.1864,-0.1879,-0.1848,-0.188,-0.1861,-0.1878,-0.1895,-0.1908,-0.1909,-0.2037,-0.2101,-0.1924,-0.1845,-0.1962,-0.1963,-0.1964,-0.1964,0,-0.2182,-0.2124,-0.2122,-0.2066,-0.2039,-0.2052,-0.2021,-0.2011,-0.2009,-0.1984,-0.1981,-0.1955,-0.1982,-0.1976,-0.1954,-0.1968,-0.1948,-0.197,-0.1985,-0.1986,-0.2107,-0.2069,-0.1861,-0.1861,-0.1975,-0.1974,-0.1973,0,-0.222,-0.2182,-0.2177,-0.2152,-0.2151,-0.2143,-0.2116,-0.2098,-0.2076,-0.2074,-0.2037,-0.2011,-0.2026,-0.2017,-0.2032,-0.201,-0.1972,-0.2042,-0.2042,-0.2053,-0.194,-0.2069,-0.2075,-0.1976,-0.1974,-0.1972,-0.1981,0,-0.2221,-0.2208,-0.2199,-0.219,-0.2189,-0.2177,-0.2187,-0.2179,-0.2184,-0.2185,-0.2148,-0.215,-0.2128,-0.2125,-0.2138,-0.2082,-0.2112,-0.2122,-0.2147,-0.2096,-0.2112,-0.2105,-0.2199,-0.22,-0.2201,-0.2202,0,0,-0.2259,-0.2243,-0.227,-0.2256,-0.2249,-0.2285,-0.2267,-0.2268,-0.2273,-0.2261,-0.2278,-0.2241,-0.2242,-0.2196,-0.218,-0.2189,-0.2194,-0.2192,-0.2127,-0.2118,-0.2111,-0.2122,-0.2114,-0.2203,-0.2204,-0.2204,-0.2204,0,-0.2261,-0.2281,-0.2273,-0.2276,-0.2289,-0.2299,-0.23,-0.2316,-0.2315,-0.2298,-0.2306,-0.229,-0.2277,-0.2261,-0.2253,-0.2206,-0.2225,-0.2208,-0.2161,-0.2135,-0.2126,-0.2117,-0.2126,-0.2119,-0.2206,-0.2206,-0.2206,0,-0.2287,-0.2295,-0.2299,-0.2316,-0.2327,-0.232,-0.2353,-0.2359,-0.2343,-0.2374,-0.2345,-0.2349,-0.2345,-0.2315,-0.2303,-0.2318,-0.2259,-0.2281,-0.2277,-0.2261,-0.2236,-0.2225,-0.2215,-0.2339,-0.2339,-0.234,0,0,-0.2293,-0.2294,-0.232,-0.2321,-0.2328,-0.235,-0.2356,-0.2369,-0.2374,-0.2377,-0.2376,-0.237,-0.2356,-0.235,-0.2339,-0.2318,-0.232,-0.2296,-0.229,-0.2285,-0.2267,-0.224,-0.223,-0.2341,-0.2341,-0.2341,0,0,-0.2295,-0.2318,-0.2332,-0.2339,-0.235,-0.237,-0.2369,-0.2384,-0.2386,-0.2387,-0.2395,-0.2395,-0.2368,-0.2375,-0.2392,-0.2341,-0.2368,-0.2365,-0.2334,-0.2327,-0.2321,-0.2301,-0.2408,0,0,0,0,0,-0.2316,-0.2315,-0.2327,-0.2332,-0.2359,-0.2366,-0.237,-0.2386,-0.2398,-0.2395,-0.2397,-0.2406,-0.238,-0.2396,-0.2395,-0.2366,-0.2358,-0.2355,-0.2352,-0.2307,-0.2299,-0.2292,0,0,0,0,0,0,-0.2318,-0.2324,-0.2327,-0.2348,-0.2354,-0.2367,-0.2385,-0.2389,-0.2398,-0.24,-0.2406,-0.2406,-0.2411,-0.2397,-0.2396,-0.2368,-0.2408,-0.2357,-0.2354,-0.2352,-0.2305,-0.2298,-0.2292,0,0,0,0,0,-0.232,-0.2324,-0.2364,-0.2348,-0.2354,-0.2376,-0.2385,-0.2389,-0.2396,-0.2403,-0.2404,-0.2408,-0.2411,-0.241,-0.2396,-0.2367,-0.2409,-0.2408,-0.2355,-0.2353,-0.2351,-0.2301,0,0,0,0,0,0,-0.2321,-0.2327,-0.2366,-0.2368,-0.2349,-0.2375,-0.238,-0.2388,-0.2398,-0.24,-0.2404,-0.2406,-0.241,-0.241,-0.2409,-0.2366,-0.2409,-0.2409,-0.2409,-0.2353,-0.2352,-0.2351,0,0,0,0,0,0,-0.2325,-0.2329,-0.2367,-0.2367,-0.237,-0.2374,-0.2379,-0.2374,-0.2397,-0.2399,-0.24,-0.2405,-0.2403,-0.241,-0.241,-0.2403,-0.2409,-0.2409,-0.2409,-0.2409,-0.2352,-0.2351,0,0,0,0,0,0,-0.2327,-0.233,-0.2367,-0.2369,-0.2371,-0.2397,-0.237,-0.2392,-0.2413,-0.2397,-0.2414,-0.2414,-0.2403,-0.2403,-0.241,-0.2403,-0.2403,-0.2409,-0.2409,-0.2409,-0.2409,0,0,0,0,0,0,0,-0.2329,-0.2302,-0.2353,-0.237,-0.2372,-0.2388,-0.2389,-0.239,-0.2413,-0.2413,-0.2414,-0.2414,-0.2411,-0.2411,-0.2411,-0.2403,0,0,-0.2409,-0.2409,0,0,0,0,0,0,0,0,-0.2301,-0.2302,-0.2353,-0.2353,-0.2354,-0.2389,-0.2389,-0.239,-0.2413,-0.2413,-0.2414,-0.2414,-0.2411,-0.2411,-0.2411,0,0,0,0,0,0,0,0,0,0,0,0,0,0,0,-0.2353,-0.2353,0,-0.2389,-0.2389,-0.2389,-0.2413,-0.2413,-0.2414,-0.2414,-0.2411,-0.2411,-0.2411,0,0,0,0,0,0,0,0,0,0,0,0,0,0,0,0,0,0,0,0,0,0,0,0,0,0,0,0,0,0,0,0,0,0,0,0,0,0,0,0,0,0,0,0,0,0,0,0,0,0,0,0,0,0,0,0,0,0,0,0,0,0,0,0,0,0,0,0,0]}],[{"header":{"parameterUnit":"kt","parameterCategory":2,"dx":1,"dy":1,"la1":30.253999710083008,"la2":30.299108505249023,"lo1":-89.0895004272461,"lo2":-89.04439544677734,"nx":28,"ny":28,"refTime":"2022-09-27T15:00:00:Z","depth":"2","parameterNumber":3,"parameterNumberName":"V-component_of_CURRENTS"},"data":[-0.1592,-0.155,-0.1594,-0.1565,-0.163,-0.1591,-0.165,-0.1561,-0.1458,-0.1327,-0.1215,-0.0786,-0.054,-0.0105,0.0248,0.041,0.0251,0.0407,-0.023,-0.0026,-0.0063,0.0095,0.0155,0,0,0,0,0,-0.1704,-0.1771,-0.176,-0.174,-0.1691,-0.175,-0.1775,-0.1692,-0.1613,-0.1469,-0.1339,-0.0979,-0.051,-0.0332,0.0139,0.0274,0.0401,0.0116,0.0337,0.0303,0.0272,0.0331,0.0612,0.0613,0.0613,0.0613,0,0,-0.191,-0.1889,-0.1865,-0.183,-0.1808,-0.1795,-0.1798,-0.1674,-0.163,-0.1494,-0.1498,-0.1327,-0.0961,-0.0549,-0.0346,-0.0191,-0.0311,-0.0324,-0.0328,-0.0339,-0.0315,-0.0338,-0.0203,-0.0207,-0.0211,-0.0214,-0.0217,0,-0.2002,-0.2005,-0.1957,-0.1922,-0.1873,-0.1813,-0.1745,-0.1728,-0.163,-0.1579,-0.1544,-0.1476,-0.1174,-0.0845,-0.067,-0.059,-0.0586,-0.0526,-0.0924,-0.022,-0.0235,-0.023,-0.0254,-0.0084,-0.0088,-0.0091,-0.0093,-0.0095,-0.21,-0.2066,-0.2001,-0.1968,-0.1922,-0.1841,-0.1784,-0.1688,-0.1633,-0.1499,-0.1456,-0.1343,-0.1259,-0.1125,-0.0869,-0.0754,-0.094,-0.06,-0.0549,-0.0951,-0.0948,-0.0952,-0.0955,-0.0135,-0.013,-0.0126,-0.0123,0,-0.215,-0.2111,-0.203,-0.1943,-0.1916,-0.1856,-0.1742,-0.1677,-0.1585,-0.1477,-0.1433,-0.1285,-0.1197,-0.1086,-0.0966,-0.0934,-0.0873,-0.0876,-0.0579,-0.0542,-0.0941,-0.0947,-0.091,-0.0912,-0.0914,-0.0915,-0.0917,0,-0.2175,-0.2113,-0.2043,-0.2,-0.1921,-0.184,-0.1745,-0.166,-0.1545,-0.1461,-0.1343,-0.1266,-0.1116,-0.1034,-0.0979,-0.0927,-0.0875,-0.09,-0.0895,-0.0602,-0.0587,-0.0827,-0.0831,-0.0795,-0.0795,-0.0795,-0.0795,0,-0.2204,-0.2103,-0.2034,-0.1993,-0.187,-0.1821,-0.1751,-0.1623,-0.1543,-0.1404,-0.1349,-0.121,-0.1131,-0.1059,-0.0979,-0.0978,-0.0874,-0.0857,-0.0898,-0.0904,-0.0589,-0.0572,-0.0795,-0.0795,-0.0795,-0.0795,-0.0796,0,-0.2187,-0.2136,-0.2052,-0.1936,-0.1908,-0.1848,-0.1716,-0.163,-0.1488,-0.142,-0.1313,-0.1231,-0.1116,-0.1114,-0.0987,-0.101,-0.0979,-0.0937,-0.0935,-0.0977,-0.0985,-0.0671,-0.0588,-0.0929,-0.093,-0.093,-0.0931,0,-0.2214,-0.2134,-0.2073,-0.198,-0.1922,-0.1836,-0.1754,-0.1646,-0.1555,-0.1448,-0.1339,-0.1226,-0.1197,-0.1145,-0.1093,-0.1009,-0.0983,-0.1014,-0.0929,-0.0927,-0.1,-0.0992,-0.0657,-0.0613,-0.0942,-0.0941,-0.094,0,-0.2223,-0.2114,-0.2103,-0.2052,-0.1944,-0.1889,-0.18,-0.1677,-0.1615,-0.1501,-0.14,-0.1256,-0.122,-0.1148,-0.108,-0.1034,-0.1004,-0.1024,-0.102,-0.1028,-0.0928,-0.1,-0.0999,-0.0976,-0.0974,-0.0972,-0.0949,0,-0.2167,-0.2121,-0.2108,-0.2019,-0.196,-0.1907,-0.1801,-0.1738,-0.1668,-0.1579,-0.1451,-0.1342,-0.1216,-0.1182,-0.1129,-0.1045,-0.1052,-0.1029,-0.1018,-0.1004,-0.0999,-0.0992,-0.1062,-0.1061,-0.1061,-0.106,0,0,-0.2184,-0.2129,-0.2075,-0.2031,-0.1973,-0.1899,-0.1846,-0.1769,-0.1632,-0.1576,-0.1563,-0.1349,-0.127,-0.1135,-0.1118,-0.1083,-0.1068,-0.1067,-0.1015,-0.1011,-0.1006,-0.1,-0.0994,-0.1059,-0.1059,-0.1059,-0.1059,0,-0.2152,-0.2122,-0.2094,-0.2035,-0.1949,-0.1877,-0.187,-0.1755,-0.1693,-0.1588,-0.1507,-0.1427,-0.1279,-0.1187,-0.1124,-0.1083,-0.1045,-0.1061,-0.1062,-0.1013,-0.1009,-0.1005,-0.0999,-0.0994,-0.1057,-0.1057,-0.1057,0,-0.2131,-0.2077,-0.2056,-0.1971,-0.191,-0.1846,-0.1798,-0.1739,-0.1669,-0.1583,-0.1474,-0.1402,-0.1289,-0.1191,-0.1147,-0.1141,-0.1034,-0.1052,-0.1054,-0.1045,-0.0992,-0.0988,-0.0985,-0.1033,-0.1033,-0.1033,0,0,-0.2109,-0.2078,-0.1979,-0.1957,-0.1928,-0.1826,-0.178,-0.1722,-0.1632,-0.1593,-0.1498,-0.1402,-0.1307,-0.1254,-0.1166,-0.1086,-0.1062,-0.1052,-0.1053,-0.1054,-0.1046,-0.0994,-0.099,-0.1034,-0.1034,-0.1034,0,0,-0.2091,-0.1991,-0.1964,-0.1933,-0.1857,-0.1736,-0.1708,-0.1656,-0.1569,-0.1564,-0.1455,-0.1425,-0.1335,-0.128,-0.13,-0.1155,-0.1148,-0.1141,-0.1187,-0.1188,-0.1189,-0.1199,-0.1236,0,0,0,0,0,-0.2011,-0.2007,-0.1984,-0.1967,-0.1843,-0.1755,-0.1732,-0.1643,-0.1627,-0.1607,-0.1516,-0.147,-0.1263,-0.1279,-0.1253,-0.122,-0.1043,-0.1041,-0.104,-0.108,-0.1081,-0.1082,0,0,0,0,0,0,-0.2004,-0.1986,-0.1983,-0.1871,-0.1841,-0.1755,-0.1704,-0.1678,-0.1626,-0.1618,-0.1488,-0.1466,-0.1387,-0.1287,-0.1264,-0.1235,-0.1243,-0.1042,-0.1041,-0.104,-0.108,-0.1081,-0.1082,0,0,0,0,0,-0.1997,-0.1983,-0.182,-0.1868,-0.1842,-0.172,-0.1704,-0.1683,-0.1641,-0.1511,-0.1488,-0.1579,-0.1389,-0.1364,-0.1273,-0.1246,-0.1258,-0.125,-0.1041,-0.104,-0.1039,-0.1081,0,0,0,0,0,0,-0.1992,-0.195,-0.1811,-0.1797,-0.1873,-0.1721,-0.17,-0.1687,-0.1536,-0.1513,-0.1597,-0.1592,-0.139,-0.137,-0.1351,-0.1255,-0.127,-0.1262,-0.1257,-0.104,-0.104,-0.1039,0,0,0,0,0,0,-0.1957,-0.194,-0.1804,-0.1816,-0.1802,-0.1724,-0.1705,-0.1623,-0.1536,-0.163,-0.1621,-0.1597,-0.1419,-0.1375,-0.136,-0.1234,-0.1279,-0.1271,-0.1266,-0.1262,-0.104,-0.1039,0,0,0,0,0,0,-0.1947,-0.1932,-0.1819,-0.1809,-0.1797,-0.1635,-0.1647,-0.1527,-0.1545,-0.1639,-0.1544,-0.1544,-0.1425,-0.1408,-0.1366,-0.1247,-0.1237,-0.1279,-0.1273,-0.127,-0.1267,0,0,0,0,0,0,0,-0.1939,-0.2073,-0.1894,-0.1803,-0.1792,-0.167,-0.1666,-0.1662,-0.1545,-0.1545,-0.1545,-0.1544,-0.1323,-0.1315,-0.1306,-0.1258,0,0,-0.128,-0.1276,0,0,0,0,0,0,0,0,-0.2076,-0.2074,-0.1893,-0.189,-0.1888,-0.1669,-0.1666,-0.1663,-0.1545,-0.1545,-0.1545,-0.1544,-0.1321,-0.1314,-0.1307,0,0,0,0,0,0,0,0,0,0,0,0,0,0,0,-0.1893,-0.1891,0,-0.1669,-0.1666,-0.1664,-0.1545,-0.1545,-0.1545,-0.1544,-0.1319,-0.1314,-0.1308,0,0,0,0,0,0,0,0,0,0,0,0,0,0,0,0,0,0,0,0,0,0,0,0,0,0,0,0,0,0,0,0,0,0,0,0,0,0,0,0,0,0,0,0,0,0,0,0,0,0,0,0,0,0,0,0,0,0,0,0,0,0,0,0,0,0,0,0,0]}]],[[{"header":{"parameterUnit":"kt","parameterCategory":2,"dx":1,"dy":1,"la1":30.253999710083008,"la2":30.299108505249023,"lo1":-89.0895004272461,"lo2":-89.04439544677734,"nx":28,"ny":28,"refTime":"2022-09-27T15:00:00:Z","depth":"4","parameterNumber":2,"parameterNumberName":"U-component_of_CURRENTS"},"data":[-0.0549,-0.0516,-0.0481,-0.0427,-0.0402,-0.0399,-0.0404,-0.0447,-0.0478,-0.0568,-0.0647,-0.0745,-0.0877,-0.0889,-0.1017,-0.1038,-0.0992,-0.12,-0.12,-0.1136,-0.1135,-0.1133,-0.1119,0,0,0,0,0,-0.0569,-0.0523,-0.0502,-0.0478,-0.0475,-0.0476,-0.0488,-0.0507,-0.0568,-0.0619,-0.0679,-0.0777,-0.0913,-0.0976,-0.1027,-0.106,-0.1106,-0.1113,-0.1053,-0.1135,-0.1133,-0.112,0,0,0,0,0,0,-0.0599,-0.0574,-0.057,-0.0547,-0.0546,-0.0529,-0.0538,-0.0568,-0.0589,-0.0693,-0.0726,-0.0862,-0.0945,-0.1029,-0.1088,-0.1138,-0.1125,-0.1086,-0.1087,-0.1085,-0.1068,-0.1087,-0.1077,0,0,0,0,0,-0.0635,-0.0632,-0.0633,-0.0626,-0.0619,-0.0615,-0.0619,-0.061,-0.0673,-0.0721,-0.0803,-0.0879,-0.096,-0.103,-0.1099,-0.1135,-0.1124,-0.1144,-0.1142,-0.1105,-0.1125,-0.1138,-0.1139,-0.1125,-0.1125,-0.1125,-0.1125,0,-0.0669,-0.067,-0.0695,-0.069,-0.0706,-0.0707,-0.0707,-0.0751,-0.075,-0.0832,-0.0824,-0.0905,-0.0957,-0.1027,-0.1078,-0.1141,-0.1144,-0.1139,-0.11,-0.1121,-0.1135,-0.1137,-0.1138,-0.1123,-0.1123,-0.1123,-0.1123,0,-0.0671,-0.072,-0.0738,-0.078,-0.0787,-0.0778,-0.0806,-0.0802,-0.0841,-0.085,-0.0855,-0.0918,-0.0976,-0.103,-0.1061,-0.1067,-0.1094,-0.111,-0.1117,-0.1131,-0.1134,-0.1136,-0.112,-0.1121,-0.1121,-0.1122,-0.1122,0,-0.0717,-0.0739,-0.0797,-0.081,-0.0806,-0.0865,-0.0856,-0.088,-0.0903,-0.091,-0.0951,-0.096,-0.0988,-0.1019,-0.1048,-0.108,-0.1066,-0.1087,-0.1099,-0.1084,-0.1086,-0.108,-0.1082,-0.1055,-0.1055,-0.1055,-0.1055,0,-0.0722,-0.0804,-0.0825,-0.085,-0.0912,-0.0912,-0.0932,-0.0962,-0.0969,-0.0987,-0.0995,-0.1,-0.1002,-0.1011,-0.1058,-0.1055,-0.1074,-0.1068,-0.1099,-0.1102,-0.1079,-0.1082,-0.1055,-0.1055,-0.1054,-0.1054,-0.1054,0,-0.0772,-0.0816,-0.0862,-0.0906,-0.0925,-0.0946,-0.0964,-0.0991,-0.1014,-0.1032,-0.1036,-0.1054,-0.1045,-0.1062,-0.1064,-0.1072,-0.1086,-0.1097,-0.1098,-0.1106,-0.1136,-0.1155,-0.1137,-0.1138,-0.1138,-0.1138,-0.1139,0,-0.0741,-0.082,-0.0872,-0.0918,-0.0956,-0.1006,-0.1019,-0.1056,-0.1083,-0.1099,-0.1097,-0.1097,-0.1115,-0.1112,-0.1106,-0.1113,-0.1109,-0.1114,-0.1123,-0.1124,-0.1144,-0.1127,-0.1116,-0.1143,-0.1143,-0.1142,-0.1142,0,-0.0725,-0.0834,-0.0847,-0.0876,-0.0972,-0.1008,-0.1036,-0.1079,-0.1087,-0.1136,-0.1137,-0.1126,-0.114,-0.1128,-0.1135,-0.1125,-0.112,-0.1143,-0.1142,-0.1159,-0.1114,-0.1133,-0.1132,-0.1121,-0.112,-0.1119,-0.1145,0,-0.0741,-0.0795,-0.0824,-0.0916,-0.0963,-0.1014,-0.1072,-0.1109,-0.1146,-0.1179,-0.118,-0.1185,-0.118,-0.1183,-0.1183,-0.1157,-0.1176,-0.1174,-0.1177,-0.1161,-0.1178,-0.1175,-0.1205,-0.1205,-0.1205,-0.1205,0,0,-0.0699,-0.0766,-0.0842,-0.0901,-0.0941,-0.1022,-0.1064,-0.1107,-0.1191,-0.1197,-0.1217,-0.122,-0.1222,-0.1192,-0.1188,-0.1196,-0.1203,-0.1197,-0.1172,-0.1168,-0.1165,-0.1179,-0.1177,-0.1206,-0.1206,-0.1206,-0.1206,0,-0.0707,-0.0766,-0.0817,-0.0877,-0.0979,-0.1022,-0.1048,-0.1144,-0.1177,-0.1213,-0.1221,-0.1222,-0.1236,-0.1219,-0.1209,-0.12,-0.1208,-0.1206,-0.1187,-0.1173,-0.117,-0.1166,-0.118,-0.1178,-0.1206,-0.1206,-0.1206,0,-0.0703,-0.0768,-0.0798,-0.0901,-0.0964,-0.1015,-0.1066,-0.1142,-0.1172,-0.1195,-0.1234,-0.1239,-0.1227,-0.1223,-0.1224,-0.1226,-0.1214,-0.1221,-0.1221,-0.1205,-0.119,-0.1186,-0.1182,-0.1229,-0.1229,-0.1229,0,0,-0.0714,-0.0768,-0.086,-0.0907,-0.0945,-0.1035,-0.1085,-0.1133,-0.1181,-0.1208,-0.1231,-0.1237,-0.1228,-0.1232,-0.1229,-0.1232,-0.1227,-0.1224,-0.1223,-0.1223,-0.1207,-0.1192,-0.1188,-0.1229,-0.1229,-0.1229,0,0,-0.0714,-0.0816,-0.0849,-0.0906,-0.0982,-0.1071,-0.1114,-0.1164,-0.1211,-0.1214,-0.1227,-0.123,-0.1234,-0.1235,-0.1241,-0.1227,-0.123,-0.1229,-0.123,-0.1229,-0.1228,-0.1209,-0.1238,0,0,0,0,0,-0.0772,-0.08,-0.083,-0.0851,-0.0972,-0.1054,-0.1073,-0.1147,-0.1174,-0.1207,-0.1222,-0.1224,-0.1231,-0.1237,-0.1239,-0.1233,-0.1236,-0.1235,-0.1234,-0.1235,-0.1234,-0.1232,0,0,0,0,0,0,-0.078,-0.0802,-0.083,-0.0914,-0.0943,-0.1052,-0.1075,-0.1095,-0.1172,-0.118,-0.1222,-0.1224,-0.1222,-0.1236,-0.1238,-0.1232,-0.1238,-0.1235,-0.1234,-0.1234,-0.1234,-0.1233,-0.1232,0,0,0,0,0,-0.0787,-0.0805,-0.0977,-0.0915,-0.0941,-0.1046,-0.1074,-0.1092,-0.1158,-0.1176,-0.1184,-0.1215,-0.1221,-0.1224,-0.1237,-0.1231,-0.1237,-0.1237,-0.1235,-0.1234,-0.1233,-0.1234,0,0,0,0,0,0,-0.0793,-0.0822,-0.0985,-0.0996,-0.0913,-0.1043,-0.1063,-0.1089,-0.115,-0.1161,-0.1164,-0.1168,-0.1221,-0.1223,-0.1225,-0.123,-0.1236,-0.1236,-0.1237,-0.1234,-0.1234,-0.1233,0,0,0,0,0,0,-0.0814,-0.0831,-0.0991,-0.0984,-0.0995,-0.1039,-0.1057,-0.1062,-0.1146,-0.1132,-0.114,-0.1164,-0.1189,-0.1222,-0.1224,-0.1232,-0.1235,-0.1236,-0.1236,-0.1236,-0.1234,-0.1233,0,0,0,0,0,0,-0.0823,-0.0838,-0.0981,-0.099,-0.1,-0.1134,-0.1041,-0.1143,-0.1204,-0.1125,-0.1205,-0.1205,-0.1185,-0.119,-0.1223,-0.123,-0.1231,-0.1235,-0.1235,-0.1236,-0.1236,0,0,0,0,0,0,0,-0.083,-0.0706,-0.0919,-0.0995,-0.1004,-0.1105,-0.1108,-0.111,-0.1204,-0.1204,-0.1205,-0.1205,-0.1231,-0.1232,-0.1233,-0.1229,0,0,-0.1235,-0.1235,0,0,0,0,0,0,0,0,-0.0702,-0.0705,-0.0919,-0.0922,-0.0924,-0.1105,-0.1108,-0.111,-0.1204,-0.1204,-0.1204,-0.1205,-0.1232,-0.1232,-0.1233,0,0,0,0,0,0,0,0,0,0,0,0,0,0,0,-0.0919,-0.0922,0,-0.1106,-0.1107,-0.1109,-0.1204,-0.1204,-0.1204,-0.1205,-0.1232,-0.1232,-0.1233,0,0,0,0,0,0,0,0,0,0,0,0,0,0,0,0,0,0,0,0,0,0,0,0,0,0,0,0,0,0,0,0,0,0,0,0,0,0,0,0,0,0,0,0,0,0,0,0,0,0,0,0,0,0,0,0,0,0,0,0,0,0,0,0,0,0,0,0,0]}],[{"header":{"parameterUnit":"kt","parameterCategory":2,"dx":1,"dy":1,"la1":30.253999710083008,"la2":30.299108505249023,"lo1":-89.0895004272461,"lo2":-89.04439544677734,"nx":28,"ny":28,"refTime":"2022-09-27T15:00:00:Z","depth":"4","parameterNumber":3,"parameterNumberName":"V-component_of_CURRENTS"},"data":[0.0101,0.0053,0.0047,-0.0026,-0.0054,-0.0083,-0.0087,-0.0078,-0.0085,-0.0075,-0.0004,0.0051,0.0195,0.0106,0.0344,0.0381,0.0417,0.0618,0.0621,0.0664,0.0661,0.0658,0.066,0,0,0,0,0,0.0157,0.0113,0.0072,0.0012,-0.0007,-0.0018,-0.0043,-0.004,-0.0045,-0.0055,-0.0045,0.0029,0.0178,0.0251,0.0348,0.0419,0.054,0.0541,0.0575,0.0662,0.0658,0.0662,0,0,0,0,0,0,0.022,0.0183,0.0131,0.0083,0.0047,0.0014,0.0008,-0.0019,-0.0032,-0.0024,-0.0019,0.0073,0.0131,0.0286,0.0378,0.0475,0.0506,0.0532,0.0536,0.0534,0.0518,0.0486,0.0489,0,0,0,0,0,0.0265,0.0254,0.0201,0.0143,0.0105,0.0069,0.0034,0.0017,0.0011,0.0027,0.0033,0.011,0.0194,0.031,0.0409,0.0498,0.0581,0.061,0.0608,0.0626,0.0612,0.0625,0.0621,0.0644,0.0644,0.0643,0.0643,0,0.0344,0.0292,0.0224,0.0192,0.0156,0.0114,0.0093,0.0087,0.0073,0.0084,0.0082,0.0143,0.0192,0.0316,0.0426,0.0545,0.0568,0.0599,0.0618,0.0606,0.062,0.0617,0.0615,0.064,0.064,0.0641,0.0641,0,0.0391,0.0341,0.0257,0.0194,0.018,0.0147,0.0115,0.0106,0.0117,0.0115,0.0122,0.0178,0.0246,0.0332,0.042,0.048,0.0554,0.0581,0.0521,0.0536,0.061,0.0609,0.0635,0.0636,0.0637,0.0638,0.0639,0,0.0439,0.0373,0.0304,0.0257,0.0207,0.0175,0.0149,0.0154,0.0164,0.0163,0.0215,0.0229,0.0316,0.0365,0.0425,0.0503,0.0492,0.0567,0.0584,0.0548,0.0547,0.0575,0.0577,0.0556,0.0556,0.0556,0.0556,0,0.0509,0.039,0.0317,0.0286,0.0215,0.02,0.0189,0.0201,0.0199,0.0232,0.0237,0.0297,0.0323,0.0374,0.0443,0.0446,0.0505,0.0524,0.0575,0.0576,0.0575,0.0577,0.0556,0.0556,0.0556,0.0556,0.0556,0,0.0529,0.0461,0.0358,0.0288,0.0267,0.0234,0.0228,0.0212,0.0244,0.0256,0.0292,0.0329,0.0375,0.0395,0.0461,0.0451,0.0483,0.0516,0.0517,0.0566,0.0591,0.0563,0.054,0.054,0.054,0.054,0.054,0,0.061,0.0489,0.0457,0.0364,0.0302,0.0301,0.0288,0.0281,0.029,0.0294,0.0355,0.0376,0.0408,0.0424,0.0448,0.05,0.051,0.0502,0.056,0.0562,0.058,0.0568,0.0526,0.0537,0.0538,0.0538,0.0538,0,0.0672,0.0559,0.0541,0.0493,0.0427,0.0395,0.037,0.0352,0.0349,0.0336,0.0343,0.0397,0.0416,0.0452,0.0493,0.0512,0.0508,0.053,0.0532,0.0525,0.0535,0.0562,0.0565,0.0525,0.0525,0.0526,0.0537,0,0.0676,0.062,0.0585,0.0509,0.048,0.0425,0.0407,0.0383,0.0378,0.0374,0.0395,0.0431,0.0467,0.0485,0.0518,0.0539,0.0545,0.0567,0.0586,0.057,0.0577,0.0578,0.0583,0.0584,0.0585,0.0586,0,0,0.0748,0.0684,0.0664,0.0599,0.057,0.0551,0.0494,0.0477,0.0429,0.0433,0.0429,0.0478,0.0512,0.056,0.0552,0.057,0.0579,0.0576,0.0579,0.0578,0.0577,0.0583,0.0582,0.0588,0.0588,0.0588,0.0588,0,0.0745,0.0734,0.0685,0.0647,0.0583,0.0562,0.0546,0.0484,0.0467,0.0446,0.0471,0.0494,0.0524,0.0555,0.0586,0.0579,0.0607,0.059,0.0565,0.0585,0.0583,0.0581,0.0586,0.0585,0.0591,0.059,0.059,0,0.0779,0.0744,0.0731,0.0675,0.0636,0.0589,0.0587,0.053,0.0502,0.0535,0.0498,0.0527,0.0579,0.0589,0.06,0.0612,0.0631,0.0632,0.0628,0.0629,0.0652,0.0649,0.0646,0.0676,0.0676,0.0676,0,0,0.0774,0.0743,0.0702,0.0674,0.0651,0.0606,0.058,0.0549,0.0529,0.0516,0.0522,0.0544,0.0579,0.0592,0.0613,0.063,0.0648,0.0639,0.0635,0.0632,0.0631,0.0652,0.0649,0.0676,0.0676,0.0676,0,0,0.077,0.0724,0.0716,0.0685,0.0643,0.0592,0.0561,0.0545,0.0525,0.0519,0.0551,0.0558,0.0571,0.0598,0.0593,0.0623,0.0644,0.0645,0.0598,0.0593,0.0589,0.058,0.0622,0,0,0,0,0,0.075,0.0733,0.0726,0.0717,0.0654,0.0601,0.0589,0.0552,0.0547,0.052,0.0531,0.0555,0.0597,0.0594,0.0603,0.0604,0.0677,0.0677,0.0677,0.062,0.0615,0.0611,0,0,0,0,0,0,0.0747,0.0736,0.0726,0.0679,0.0664,0.0601,0.0596,0.0585,0.0548,0.0543,0.055,0.0556,0.0574,0.0592,0.0599,0.06,0.062,0.0677,0.0677,0.0677,0.0618,0.0614,0.0611,0,0,0,0,0,0.0744,0.0735,0.0646,0.0678,0.0665,0.0614,0.0596,0.0587,0.0549,0.0573,0.0574,0.0522,0.0573,0.0582,0.0596,0.0596,0.0615,0.0618,0.0677,0.0677,0.0677,0.0616,0,0,0,0,0,0,0.0741,0.0717,0.0642,0.0636,0.0682,0.0615,0.0604,0.0588,0.0581,0.058,0.055,0.0548,0.0573,0.058,0.0586,0.0592,0.0611,0.0614,0.0615,0.0677,0.0677,0.0677,0,0,0,0,0,0,0.0722,0.0713,0.0639,0.0646,0.064,0.0617,0.0607,0.0636,0.0585,0.056,0.0556,0.055,0.0602,0.0578,0.0583,0.0625,0.0608,0.0611,0.0612,0.0613,0.0677,0.0677,0,0,0,0,0,0,0.0717,0.0709,0.0647,0.0643,0.0638,0.0569,0.0645,0.0603,0.0524,0.0563,0.0524,0.0524,0.0604,0.0606,0.0581,0.0621,0.0624,0.0608,0.061,0.0611,0.0612,0,0,0,0,0,0,0,0.0713,0.0778,0.068,0.064,0.0636,0.0585,0.0583,0.0582,0.0524,0.0524,0.0524,0.0524,0.0593,0.0596,0.0599,0.0617,0,0,0.0608,0.0609,0,0,0,0,0,0,0,0,0.078,0.0779,0.068,0.0679,0.0678,0.0585,0.0584,0.0582,0.0524,0.0524,0.0524,0.0524,0.0594,0.0596,0.0599,0,0,0,0,0,0,0,0,0,0,0,0,0,0,0,0.068,0.0679,0,0.0585,0.0584,0.0582,0.0524,0.0524,0.0524,0.0524,0.0595,0.0597,0.0599,0,0,0,0,0,0,0,0,0,0,0,0,0,0,0,0,0,0,0,0,0,0,0,0,0,0,0,0,0,0,0,0,0,0,0,0,0,0,0,0,0,0,0,0,0,0,0,0,0,0,0,0,0,0,0,0,0,0,0,0,0,0,0,0,0,0,0,0,0]}]]]